Date String (YYYY-MM-DD hh:mm:ss) UTC,Instrument flags,absolute air pressure of the measurement (hPa),sample flow rate (lpm),inlet stack bypass flow (lpm),air temperature of the measurement (°C),ambient temperature measured by the external sensor (°C),aerosol sample conditioner tube jacket temperature (°C),OPC LED temperature (°C),internal box temperature (°C),relative humidity of the measurement (%),span deviation,mass concentration of particles derived from Lorenz-Mie calculation of OPC scattering (μg/m³),mass concentration of particles derived from Lorenz-Mie calculation of OPC scattering (μg/m³),mass concentration of particles derived from Lorenz-Mie calculation of OPC scattering (μg/m³)
DateTimeUTC,F1_M11,P_M11,Q1_M11,Q2_M11,T1_M11,T2_M11,T3_M11,T4_M11,T5_M11,U1_M11,ZSPAN_M11,X0_M11,X2_M11,X1_M11
2023-10-16 21:00:00,SystemResetWarning,0834.9,5.00,000.00,028.3,024.6,000.0,036.7,029.8,14.1,0000.0,0009.13,0003.17,0002.36
2023-10-16 21:01:00,SystemResetWarning,0834.9,5.00,000.00,028.2,025.0,000.0,036.7,029.8,14.2,0000.0,0009.34,0003.18,0002.36
2023-10-16 21:02:00,SystemResetWarning,0834.9,5.00,000.00,028.2,025.5,000.0,036.8,029.8,14.2,0000.0,0009.98,0003.20,0002.34
2023-10-16 21:03:00,SystemResetWarning,0834.9,4.99,000.00,028.2,025.9,000.0,036.8,029.9,14.3,0000.0,0010.08,0003.20,0002.33
2023-10-16 21:04:00,SystemResetWarning,0834.9,5.00,000.00,028.3,026.3,000.0,036.8,030.0,14.2,0000.0,0009.63,0003.19,0002.33
2023-10-16 21:05:00,SystemResetWarning,0835.0,5.00,000.00,028.3,026.6,000.0,036.8,030.1,14.2,0000.0,0009.29,0003.19,0002.32
2023-10-16 21:06:00,SystemResetWarning,0834.9,5.00,000.00,028.3,026.9,000.0,036.8,030.2,14.1,0000.0,0008.87,0003.17,0002.32
2023-10-16 21:07:00,SystemResetWarning,0834.9,4.99,000.00,028.4,027.1,000.0,036.8,030.2,14.1,0000.0,0008.94,0003.19,0002.34
2023-10-16 21:08:00,SystemResetWarning,0834.9,4.99,000.00,028.4,027.3,000.0,036.8,030.3,14.1,0000.0,0009.61,0003.23,0002.35
2023-10-16 21:09:00,SystemResetWarning,0834.9,5.00,000.00,028.5,027.5,000.0,036.8,030.4,14.1,0000.0,0009.92,0003.24,0002.37
2023-10-16 21:10:00,SystemResetWarning,0834.9,5.00,000.00,028.5,027.4,000.0,036.8,030.4,14.1,0000.0,0009.87,0003.25,0002.38
2023-10-16 21:11:00,SystemResetWarning,0834.9,5.00,000.00,028.5,025.8,000.0,036.8,030.3,14.0,0000.0,0009.53,0003.25,0002.39
2023-10-16 21:12:00,SystemResetWarning,0835.3,5.00,000.00,028.4,024.4,000.0,036.7,030.0,14.1,0000.0,0010.29,0003.26,0002.38
2023-10-16 21:13:00,SystemResetWarning,0835.4,5.01,000.00,028.4,024.4,000.0,036.7,029.9,14.1,0000.0,0010.50,0003.24,0002.39
2023-10-16 21:14:00,SystemResetWarning,0835.3,5.01,000.00,028.3,024.7,000.0,036.7,029.8,14.2,0000.0,0009.54,0003.20,0002.40
2023-10-16 21:15:00,SystemResetWarning,0835.3,4.99,000.00,028.2,025.1,000.0,036.7,029.8,14.2,0000.0,0009.26,0003.19,0002.41
2023-10-16 21:16:00,SystemResetWarning,0835.3,5.00,000.00,028.2,025.5,000.0,036.7,029.8,14.2,0000.0,0009.88,0003.19,0002.41
2023-10-16 21:17:00,SystemResetWarning,0835.1,4.99,000.00,028.2,025.9,000.0,036.7,029.9,14.4,0000.0,0011.09,0003.19,0002.42
2023-10-16 21:18:00,SystemResetWarning,0834.9,5.00,000.00,028.3,026.3,000.0,036.7,030.0,14.3,0000.0,0011.70,0003.19,0002.41
2023-10-16 21:19:00,SystemResetWarning,0835.3,5.00,000.00,028.3,026.6,000.0,036.8,030.0,14.3,0000.0,0011.39,0003.19,0002.39
2023-10-16 21:20:00,SystemResetWarning,0835.4,5.00,000.00,028.3,026.8,000.0,036.8,030.1,14.4,0000.0,0011.68,0003.18,0002.38
2023-10-16 21:21:00,SystemResetWarning,0835.3,5.00,000.00,028.4,027.1,000.0,036.8,030.2,14.4,0000.0,0011.75,0003.19,0002.38
2023-10-16 21:22:00,SystemResetWarning,0835.4,5.00,000.00,028.4,027.3,000.0,036.8,030.3,14.3,0000.0,0012.35,0003.17,0002.38
2023-10-16 21:23:00,SystemResetWarning,0834.8,5.01,000.00,028.5,027.4,000.0,036.8,030.3,14.4,0000.0,0011.72,0003.16,0002.38
2023-10-16 21:24:00,SystemResetWarning,0835.2,4.98,000.00,028.5,027.2,000.0,036.8,030.4,14.4,0000.0,0010.62,0003.15,0002.39
2023-10-16 21:25:00,SystemResetWarning,0835.1,5.00,000.00,028.5,025.5,000.0,036.8,030.2,14.4,0000.0,0010.44,0003.17,0002.38
2023-10-16 21:26:00,SystemResetWarning,0834.8,5.00,000.00,028.4,024.2,000.0,036.7,030.0,14.3,0000.0,0010.96,0003.17,0002.38
2023-10-16 21:27:00,SystemResetWarning,0834.7,5.01,000.00,028.3,024.3,000.0,036.7,029.9,14.2,0000.0,0011.03,0003.18,0002.38
2023-10-16 21:28:00,SystemResetWarning,0834.7,5.01,000.00,028.2,024.7,000.0,036.7,029.7,14.4,0000.0,0010.05,0003.22,0002.38
2023-10-16 21:29:00,SystemResetWarning,0834.7,5.00,000.00,028.2,025.1,000.0,036.7,029.7,14.4,0000.0,0009.81,0003.21,0002.36
2023-10-16 21:30:00,SystemResetWarning,0834.7,4.99,000.00,028.2,025.6,000.0,036.7,029.8,14.3,0000.0,0009.83,0003.19,0002.37
2023-10-16 21:31:00,SystemResetWarning,0834.7,5.00,000.00,028.2,026.0,000.0,036.7,029.9,14.4,0000.0,0009.60,0003.18,0002.37
2023-10-16 21:32:00,SystemResetWarning,0834.7,5.00,000.00,028.2,026.3,000.0,036.7,030.0,14.6,0000.0,0009.62,0003.16,0002.36
2023-10-16 21:33:00,SystemResetWarning,0834.7,5.01,000.00,028.3,026.6,000.0,036.7,030.0,14.9,0000.0,0009.44,0003.18,0002.36
2023-10-16 21:34:00,SystemResetWarning,0834.7,5.00,000.00,028.3,026.9,000.0,036.7,030.1,14.8,0000.0,0009.49,0003.20,0002.36
2023-10-16 21:35:00,SystemResetWarning,0834.7,4.99,000.00,028.4,027.1,000.0,036.8,030.2,14.6,0000.0,0009.70,0003.19,0002.36
2023-10-16 21:36:00,SystemResetWarning,0834.7,4.99,000.00,028.4,027.3,000.0,036.8,030.2,14.5,0000.0,0010.32,0003.20,0002.37
2023-10-16 21:37:00,SystemResetWarning,0834.7,5.00,000.00,028.5,027.4,000.0,036.8,030.3,14.3,0000.0,0010.51,0003.22,0002.37
2023-10-16 21:38:00,SystemResetWarning,0834.7,5.00,000.00,028.5,027.1,000.0,036.8,030.3,14.3,0000.0,0009.93,0003.23,0002.36
2023-10-16 21:39:00,SystemResetWarning,0834.9,5.00,000.00,028.5,025.3,000.0,036.8,030.1,14.2,0000.0,0010.27,0003.24,0002.35
2023-10-16 21:40:00,SystemResetWarning,0834.7,5.00,000.00,028.4,024.3,000.0,036.7,029.9,14.7,0000.0,0009.93,0003.23,0002.36
2023-10-16 21:41:00,SystemResetWarning,0834.7,5.01,000.00,028.3,024.4,000.0,036.6,029.8,14.5,0000.0,0009.53,0003.23,0002.37
2023-10-16 21:42:00,SystemResetWarning,0834.7,5.01,000.00,028.2,024.8,000.0,036.7,029.7,14.3,0000.0,0009.77,0003.22,0002.36
2023-10-16 21:43:00,SystemResetWarning,0834.7,5.00,000.00,028.2,025.2,000.0,036.7,029.7,14.4,0000.0,0009.19,0003.22,0002.35
2023-10-16 21:44:00,SystemResetWarning,0834.7,5.00,000.00,028.2,025.7,000.0,036.7,029.8,14.3,0000.0,0009.27,0003.22,0002.36
2023-10-16 21:45:00,SystemResetWarning,0834.7,5.01,000.00,028.2,026.0,000.0,036.7,029.9,14.4,0000.0,0009.20,0003.20,0002.36
2023-10-16 21:46:00,SystemResetWarning,0834.7,5.01,000.00,028.2,026.4,000.0,036.7,030.0,14.3,0000.0,0009.27,0003.22,0002.37
2023-10-16 21:47:00,SystemResetWarning,0834.7,5.00,000.00,028.2,026.7,000.0,036.7,030.0,14.2,0000.0,0009.21,0003.25,0002.37
2023-10-16 21:48:00,SystemResetWarning,0834.7,5.00,000.00,028.3,026.9,000.0,036.7,030.1,14.2,0000.0,0008.66,0003.24,0002.38
2023-10-16 21:49:00,SystemResetWarning,0834.9,4.99,000.00,028.3,027.1,000.0,036.7,030.2,14.3,0000.0,0008.41,0003.20,0002.39
2023-10-16 21:50:00,SystemResetWarning,0834.7,4.99,000.00,028.4,027.3,000.0,036.7,030.2,14.3,0000.0,0007.95,0003.19,0002.39
2023-10-16 21:51:00,SystemResetWarning,0834.7,5.02,000.00,028.4,027.5,000.0,036.8,030.3,14.2,0000.0,0007.89,0003.18,0002.39
2023-10-16 21:52:00,SystemResetWarning,0834.7,4.98,000.00,028.5,026.9,000.0,036.8,030.3,14.3,0000.0,0008.18,0003.17,0002.38
2023-10-16 21:53:00,SystemResetWarning,0834.8,5.01,000.00,028.4,025.0,000.0,036.7,030.1,14.5,0000.0,0008.34,0003.17,0002.38
2023-10-16 21:54:00,SystemResetWarning,0835.0,5.01,000.00,028.3,024.2,000.0,036.7,029.9,14.4,0000.0,0008.31,0003.17,0002.39
2023-10-16 21:55:00,SystemResetWarning,0834.9,5.00,000.00,028.2,024.4,000.0,036.6,029.7,14.5,0000.0,0008.89,0003.19,0002.38
2023-10-16 21:56:00,SystemResetWarning,0834.9,5.00,000.00,028.2,024.8,000.0,036.6,029.7,14.6,0000.0,0009.45,0003.23,0002.38
2023-10-16 21:57:00,SystemResetWarning,0834.8,5.01,000.00,028.1,025.2,000.0,036.6,029.7,14.7,0000.0,0009.27,0003.21,0002.40
2023-10-16 21:58:00,SystemResetWarning,0835.1,5.00,000.00,028.1,025.7,000.0,036.7,029.8,14.6,0000.0,0009.14,0003.20,0002.39
2023-10-16 21:59:00,SystemResetWarning,0834.9,5.00,000.00,028.2,026.0,000.0,036.7,029.9,14.4,0000.0,0008.96,0003.18,0002.40
